User: anonymous   Login
Location: Mt. Cuba Astronomical Observatory
(39.8100°N, 75.6300°W)
Time: 01:51:54
(UTC-05:00)
Language:

Cosmos 2058 - Orbit

View from above orbital plane
View from above orbital plane
View from above satellite
View from above satellite

Ground track
Ground track

The orbit data is extracted from the following two-line orbital elements,

1 20465U 90010A   17015.59869402  .00000253  00000-0  19398-4 0  9998
2 20465  82.4881  34.5578 0017319  89.0853 271.2353 14.97403661462507
Epoch (UTC): 15 January 2017 14:22:07
Eccentricity: 0.0017319
inclination: 82.4881°
perigee height: 563 km
apogee height: 587 km
right ascension of ascending node: 34.5578°
argument of perigee: 89.0853°
revolutions per day: 14.97403661
mean anomaly at epoch: 271.2353°
orbit number at epoch: 46250

The dashed part of the orbit path shows where the satellite is in the earth's shadow,  

DLR